Mojave, CA

6:53 AM PDT on October 18, 2019 (GMT -0700)
Mojave

Weather History for KMHV - May, 2019

Change the Weather History Date:

Monday, May 6, 2019

  Actual Average Record
Temperature  
Mean Temperature 59 °F -  
Max Temperature 68 °F 75 °F 94 °F (1987)
Min Temperature 50 °F 51 °F 37 °F (1973)
Degree Days  
Heating Degree Days 6    
Growing Degree Days 9 (Base 50)    
Moisture  
Dew Point 40 °F    
Average Humidity 49    
Maximum Humidity 76    
Minimum Humidity 35    
Precipitation  
Precipitation 0.00 in - - ()
Sea Level Pressure  
Sea Level Pressure 29.84 in    
Wind  
Wind Speed 18 mph (West)    
Max Wind Speed 26 mph    
Max Gust Speed 36 mph    
Visibility 10 miles    
Events      
Averages and records for this station are not official NWS values.
T = Trace of Precipitation, MM = Missing Value Source: NWS Daily Summary

Daily Weather History Graph

Daily Weather History Graph

Search for Another Location

Airport or City:

Astronomy

May. 06, 2019 Rise Set
Actual Time 5:56 AM PDT 7:42 PM PDT
Civil Twilight 5:29 AM PDT 8:09 PM PDT
Nautical Twilight 4:56 AM PDT 8:42 PM PDT
Astronomical Twilight 4:21 AM PDT 9:18 PM PDT
Moon 7:23 AM PDT (5/6) 9:42 PM PDT (5/6)
Length of Visible Light 14h 40m
Length of Day
13h 45m
Waxing Crescent, 4% of the Moon is Illuminated
May 6
Waxing Crescent
May 11
First Quarter
May 18
Full
May 26
Last Quarter
Jun 3
New

Hourly Weather History & Observations

Time (PDT) Temp. Dew Point Humidity Pressure Visibility Wind Dir Wind Speed Gust Speed Precip Events Conditions
12:00 AM 55.4 °F 41.0 °F 58% 29.81 in 10.0 mi WSW 15.0 mph 23.0 mph N/A   Mostly Cloudy
12:20 AM 57.2 °F 41.0 °F 55% 29.81 in 10.0 mi WSW 17.3 mph 26.5 mph N/A   Scattered Clouds
12:40 AM 57.2 °F 41.0 °F 55% 29.80 in 10.0 mi WSW 19.6 mph - N/A   Scattered Clouds
1:00 AM 55.4 °F 42.8 °F 63% 29.80 in 10.0 mi WSW 19.6 mph - N/A   Scattered Clouds
1:20 AM 55.4 °F 41.0 °F 58% 29.81 in 10.0 mi SW 15.0 mph 21.9 mph N/A   Scattered Clouds
1:40 AM 55.4 °F 41.0 °F 58% 29.81 in 10.0 mi SW 13.8 mph 26.5 mph N/A   Mostly Cloudy
2:00 AM 55.4 °F 41.0 °F 58% 29.81 in 10.0 mi SW 17.3 mph - N/A   Scattered Clouds
2:20 AM 53.6 °F 42.8 °F 67% 29.81 in 10.0 mi SW 13.8 mph - N/A   Mostly Cloudy
2:40 AM 53.6 °F 41.0 °F 62% 29.81 in 10.0 mi SW 11.5 mph - N/A   Mostly Cloudy
3:00 AM 51.8 °F 42.8 °F 71% 29.82 in 10.0 mi SW 12.7 mph - N/A   Mostly Cloudy
3:20 AM 50.0 °F 42.8 °F 76% 29.82 in 10.0 mi SW 12.7 mph - N/A   Mostly Cloudy
3:40 AM 50.0 °F 42.8 °F 76% 29.81 in 10.0 mi SSW 12.7 mph - N/A   Mostly Cloudy
4:00 AM 50.0 °F 42.8 °F 76% 29.81 in 10.0 mi SSW 13.8 mph - N/A   Mostly Cloudy
4:20 AM 50.0 °F 41.0 °F 71% 29.81 in 10.0 mi SW 16.1 mph - N/A   Mostly Cloudy
4:40 AM 50.0 °F 39.2 °F 66% 29.81 in 10.0 mi SW 18.4 mph - N/A   Mostly Cloudy
5:00 AM 51.8 °F 37.4 °F 58% 29.81 in 10.0 mi SW 20.7 mph - N/A   Mostly Cloudy
5:20 AM 51.8 °F 37.4 °F 58% 29.81 in 10.0 mi SW 19.6 mph 25.3 mph N/A   Mostly Cloudy
5:40 AM 51.8 °F 37.4 °F 58% 29.81 in 10.0 mi SW 19.6 mph 28.8 mph N/A   Mostly Cloudy
6:00 AM 51.8 °F 39.2 °F 62% 29.81 in 10.0 mi SW 20.7 mph - N/A   Partly Cloudy
6:20 AM 51.8 °F 39.2 °F 62% 29.82 in 10.0 mi SW 12.7 mph 23.0 mph N/A   Clear
6:40 AM 53.6 °F 39.2 °F 58% 29.82 in 10.0 mi West 13.8 mph 21.9 mph N/A   Clear
7:00 AM 53.6 °F 39.2 °F 58% 29.83 in 10.0 mi West 12.7 mph - N/A   Clear
7:20 AM 55.4 °F 39.2 °F 54% 29.83 in 10.0 mi WSW 12.7 mph 19.6 mph N/A   Clear
7:40 AM 55.4 °F 39.2 °F 54% 29.83 in 10.0 mi SW 17.3 mph - N/A   Clear
8:00 AM 57.2 °F 41.0 °F 55% 29.84 in 10.0 mi WSW 17.3 mph 23.0 mph N/A   Clear
8:20 AM 59.0 °F 41.0 °F 51% 29.84 in 10.0 mi West 16.1 mph 24.2 mph N/A   Clear
8:40 AM 59.0 °F 41.0 °F 51% 29.84 in 10.0 mi West 17.3 mph 24.2 mph N/A   Clear
9:00 AM 60.8 °F 41.0 °F 48% 29.84 in 10.0 mi WNW 15.0 mph 21.9 mph N/A   Clear
9:20 AM 60.8 °F 39.2 °F 45% 29.84 in 10.0 mi WNW 18.4 mph 24.2 mph N/A   Clear
9:40 AM 62.6 °F 39.2 °F 42% 29.84 in 10.0 mi NW 21.9 mph - N/A   Clear
10:00 AM 62.6 °F 39.2 °F 42% 29.84 in 10.0 mi WNW 19.6 mph 25.3 mph N/A   Clear
10:20 AM 64.4 °F 39.2 °F 40% 29.84 in 10.0 mi WNW 19.6 mph - N/A   Clear
10:40 AM 64.4 °F 39.2 °F 40% 29.85 in 10.0 mi West 19.6 mph - N/A   Clear
11:00 AM 64.4 °F 39.2 °F 40% 29.85 in 10.0 mi West 19.6 mph - N/A   Clear
11:20 AM 62.6 °F 39.2 °F 42% 29.86 in 10.0 mi WNW 20.7 mph 27.6 mph N/A   Partly Cloudy
11:40 AM 64.4 °F 39.2 °F 40% 29.86 in 10.0 mi West 18.4 mph 25.3 mph N/A   Clear
12:00 PM 64.4 °F 39.2 °F 40% 29.86 in 10.0 mi West 20.7 mph - N/A   Clear
12:20 PM 66.2 °F 39.2 °F 37% 29.86 in 10.0 mi WNW 18.4 mph 24.2 mph N/A   Clear
12:40 PM 66.2 °F 39.2 °F 37% 29.86 in 10.0 mi WNW 13.8 mph 25.3 mph N/A   Clear
1:00 PM 66.2 °F 39.2 °F 37% 29.86 in 10.0 mi West 18.4 mph - N/A   Clear
1:20 PM 66.2 °F 37.4 °F 35% 29.85 in 10.0 mi West 18.4 mph - N/A   Clear
1:40 PM 68.0 °F 39.2 °F 35% 29.85 in 10.0 mi WNW 17.3 mph 24.2 mph N/A   Clear
2:00 PM 68.0 °F 39.2 °F 35% 29.85 in 10.0 mi West 18.4 mph 26.5 mph N/A   Clear
2:20 PM 68.0 °F 39.2 °F 35% 29.85 in 10.0 mi WNW 18.4 mph 28.8 mph N/A   Clear
2:40 PM 68.0 °F 39.2 °F 35% 29.85 in 10.0 mi West 17.3 mph 29.9 mph N/A   Clear
3:00 PM 68.0 °F 39.2 °F 35% 29.85 in 10.0 mi NW 15.0 mph 25.3 mph N/A   Clear
3:20 PM 68.0 °F 39.2 °F 35% 29.84 in 10.0 mi WNW 20.7 mph 27.6 mph N/A   Clear
3:40 PM 68.0 °F 39.2 °F 35% 29.84 in 10.0 mi WNW 18.4 mph 28.8 mph N/A   Clear
4:00 PM 68.0 °F 39.2 °F 35% 29.84 in 10.0 mi WNW 23.0 mph 31.1 mph N/A   Clear
4:20 PM 68.0 °F 39.2 °F 35% 29.84 in 10.0 mi West 18.4 mph 33.4 mph N/A   Clear
5:00 PM 66.2 °F 39.2 °F 37% 29.83 in 10.0 mi WNW 24.2 mph 33.4 mph N/A   Clear
5:20 PM 66.2 °F 39.2 °F 37% 29.84 in 10.0 mi WNW 20.7 mph 29.9 mph N/A   Clear
5:40 PM 66.2 °F 41.0 °F 40% 29.84 in 10.0 mi WNW 24.2 mph 31.1 mph N/A   Clear
6:00 PM 64.4 °F 41.0 °F 42% 29.84 in 10.0 mi WNW 21.9 mph 31.1 mph N/A   Clear
6:20 PM 62.6 °F 41.0 °F 45% 29.84 in 10.0 mi WNW 23.0 mph 33.4 mph N/A   Clear
6:40 PM 62.6 °F 41.0 °F 45% 29.84 in 10.0 mi WNW 19.6 mph 33.4 mph N/A   Clear
7:00 PM 62.6 °F 41.0 °F 45% 29.84 in 10.0 mi WNW 25.3 mph 35.7 mph N/A   Clear
7:20 PM 60.8 °F 39.2 °F 45% 29.84 in 10.0 mi WNW 24.2 mph 31.1 mph N/A   Clear
7:40 PM 60.8 °F 39.2 °F 45% 29.85 in 10.0 mi NW 25.3 mph - N/A   Clear
8:00 PM 60.8 °F 41.0 °F 48% 29.86 in 10.0 mi NW 26.5 mph - N/A   Clear
8:20 PM 60.8 °F 39.2 °F 45% 29.87 in 10.0 mi WNW 24.2 mph - N/A   Partly Cloudy
8:40 PM 59.0 °F 41.0 °F 51% 29.87 in 10.0 mi WNW 24.2 mph 31.1 mph N/A   Scattered Clouds
9:00 PM 59.0 °F 41.0 °F 51% 29.87 in 10.0 mi WNW 24.2 mph 32.2 mph N/A   Mostly Cloudy
9:20 PM 59.0 °F 39.2 °F 48% 29.88 in 10.0 mi WNW 19.6 mph 31.1 mph N/A   Mostly Cloudy
9:40 PM 59.0 °F 39.2 °F 48% 29.88 in 10.0 mi NW 25.3 mph 33.4 mph N/A   Scattered Clouds
10:00 PM 59.0 °F 39.2 °F 48% 29.88 in 10.0 mi WNW 25.3 mph - N/A   Scattered Clouds
10:20 PM 59.0 °F 39.2 °F 48% 29.88 in 10.0 mi NW 25.3 mph 32.2 mph N/A   Scattered Clouds
10:40 PM 59.0 °F 39.2 °F 48% 29.88 in 10.0 mi NW 26.5 mph 32.2 mph N/A   Scattered Clouds
11:00 PM 59.0 °F 39.2 °F 48% 29.89 in 10.0 mi WNW 23.0 mph 35.7 mph N/A   Mostly Cloudy
11:20 PM 59.0 °F 39.2 °F 48% 29.89 in 10.0 mi WNW 20.7 mph 32.2 mph N/A   Mostly Cloudy
11:40 PM 59.0 °F 39.2 °F 48% 29.89 in 10.0 mi WNW 19.6 mph 28.8 mph N/A   Mostly Cloudy